User: anonymous   Login
Location: Unspecified
(0.0000°N, 0.0000°E)
Time: 09:01:56
(UTC+02:00)
Language:

Atlas Centaur 2 - Orbit

View from above orbital plane
View from above orbital plane
View from above satellite
View from above satellite

Ground track
Ground track

The orbit data is extracted from the following two-line orbital elements,

1 00694U 63047A   16269.13838321  .00000369  00000-0  32170-4 0  9997
2 00694  30.3595 182.8170 0589059 252.4176 101.1257 14.01858460645498
Epoch (UTC): 25 September 2016 03:19:16
Eccentricity: 0.0589059
inclination: 30.3595°
perigee height: 459 km
apogee height: 1315 km
right ascension of ascending node: 182.8170°
argument of perigee: 252.4176°
revolutions per day: 14.01858460
mean anomaly at epoch: 101.1257°
orbit number at epoch: 64549

The dashed part of the orbit path shows where the satellite is in the earth's shadow,  

DLR